Year,Month,Day,Hour,Minute,Value (Times are PST for temperature in C)
2005,07,24,00,00,13.70
2005,07,24,00,01,13.70
2005,07,24,00,02,13.70
2005,07,24,00,03,13.70
2005,07,24,00,04,13.60
2005,07,24,00,05,13.60
2005,07,24,00,06,13.50
2005,07,24,00,07,13.50
2005,07,24,00,08,13.50
2005,07,24,00,09,13.40
2005,07,24,00,10,13.40
2005,07,24,00,11,13.40
2005,07,24,00,12,13.40
2005,07,24,00,13,13.40
2005,07,24,00,14,13.30
2005,07,24,00,15,13.30
2005,07,24,00,16,13.30
2005,07,24,00,17,13.30
2005,07,24,00,18,13.30
2005,07,24,00,19,13.30
2005,07,24,00,20,13.30
2005,07,24,00,21,13.30
2005,07,24,00,22,13.30
2005,07,24,00,23,13.20
2005,07,24,00,24,13.20
2005,07,24,00,25,13.20
2005,07,24,00,26,13.20
2005,07,24,00,27,13.20
2005,07,24,00,28,13.20
2005,07,24,00,29,13.20
2005,07,24,00,30,13.10
2005,07,24,00,31,13.10
2005,07,24,00,32,13.10
2005,07,24,00,33,13.10
2005,07,24,00,34,13.10
2005,07,24,00,35,13.10
2005,07,24,00,36,13.10
2005,07,24,00,37,13.10
2005,07,24,00,38,13.10
2005,07,24,00,39,13.10
2005,07,24,00,40,13.10
2005,07,24,00,41,13.10
2005,07,24,00,42,13.10
2005,07,24,00,43,13.10
2005,07,24,00,44,13.10
2005,07,24,00,45,13.00
2005,07,24,00,46,13.10
2005,07,24,00,47,13.10
2005,07,24,00,48,13.10
2005,07,24,00,49,13.10
2005,07,24,00,50,13.10
2005,07,24,00,51,13.10
2005,07,24,00,52,13.10
2005,07,24,00,53,13.10
2005,07,24,00,54,13.10
2005,07,24,00,55,13.10
2005,07,24,00,56,13.10
2005,07,24,00,57,13.10
2005,07,24,00,58,13.10
2005,07,24,00,59,13.10
2005,07,24,01,00,13.10
2005,07,24,01,01,13.10
2005,07,24,01,02,13.00
2005,07,24,01,03,13.00
2005,07,24,01,04,13.00
2005,07,24,01,05,13.00
2005,07,24,01,06,13.00
2005,07,24,01,07,13.00
2005,07,24,01,08,12.90
2005,07,24,01,09,12.90
2005,07,24,01,10,12.90
2005,07,24,01,11,12.90
2005,07,24,01,12,12.80
2005,07,24,01,13,12.80
2005,07,24,01,14,12.80
2005,07,24,01,15,12.80
2005,07,24,01,16,12.80
2005,07,24,01,17,12.80
2005,07,24,01,18,12.80
2005,07,24,01,19,12.80
2005,07,24,01,20,12.80
2005,07,24,01,21,12.80
2005,07,24,01,22,12.80
2005,07,24,01,23,12.80
2005,07,24,01,24,12.80
2005,07,24,01,25,12.80
2005,07,24,01,26,12.80
2005,07,24,01,27,12.80
2005,07,24,01,28,12.80
2005,07,24,01,29,12.80
2005,07,24,01,30,12.80
2005,07,24,01,31,12.70
2005,07,24,01,32,12.70
2005,07,24,01,33,12.70
2005,07,24,01,34,12.70
2005,07,24,01,35,12.70
2005,07,24,01,36,12.60
2005,07,24,01,37,12.60
2005,07,24,01,38,12.60
2005,07,24,01,39,12.60
2005,07,24,01,40,12.60
2005,07,24,01,41,12.60
2005,07,24,01,42,12.60
2005,07,24,01,43,12.50
2005,07,24,01,44,12.50
2005,07,24,01,45,12.50
2005,07,24,01,46,12.50
2005,07,24,01,47,12.50
2005,07,24,01,48,12.40
2005,07,24,01,49,12.40
2005,07,24,01,50,12.40
2005,07,24,01,51,12.40
2005,07,24,01,52,12.40
2005,07,24,01,53,12.40
2005,07,24,01,54,12.40
2005,07,24,01,55,12.40
2005,07,24,01,56,12.40
2005,07,24,01,57,12.30
2005,07,24,01,58,12.30
2005,07,24,01,59,12.30
2005,07,24,02,00,12.30
2005,07,24,02,01,12.30
2005,07,24,02,02,12.30
2005,07,24,02,03,12.30
2005,07,24,02,04,12.30
2005,07,24,02,05,12.30
2005,07,24,02,06,12.30
2005,07,24,02,07,12.30
2005,07,24,02,08,12.30
2005,07,24,02,09,12.30
2005,07,24,02,10,12.30
2005,07,24,02,11,12.30
2005,07,24,02,12,12.30
2005,07,24,02,13,12.30
2005,07,24,02,14,12.30
2005,07,24,02,15,12.20
2005,07,24,02,16,12.20
2005,07,24,02,17,12.20
2005,07,24,02,18,12.20
2005,07,24,02,19,12.20
2005,07,24,02,20,12.20
2005,07,24,02,21,12.20
2005,07,24,02,22,12.20
2005,07,24,02,23,12.10
2005,07,24,02,24,12.10
2005,07,24,02,25,12.10
2005,07,24,02,26,12.10
2005,07,24,02,27,12.10
2005,07,24,02,28,12.10
2005,07,24,02,29,12.10
2005,07,24,02,30,12.10
2005,07,24,02,31,12.10
2005,07,24,02,32,12.10
2005,07,24,02,33,12.10
2005,07,24,02,34,12.10
2005,07,24,02,35,12.10
2005,07,24,02,36,12.10
2005,07,24,02,37,12.10
2005,07,24,02,38,12.10
2005,07,24,02,39,12.10
2005,07,24,02,40,12.10
2005,07,24,02,41,12.10
2005,07,24,02,42,12.10
2005,07,24,02,43,12.10
2005,07,24,02,44,12.10
2005,07,24,02,45,12.10
2005,07,24,02,46,12.00
2005,07,24,02,47,12.00
2005,07,24,02,48,12.00
2005,07,24,02,49,12.00
2005,07,24,02,50,12.00
2005,07,24,02,51,12.00
2005,07,24,02,52,12.00
2005,07,24,02,53,12.00
2005,07,24,02,54,11.90
2005,07,24,02,55,11.90
2005,07,24,02,56,11.90
2005,07,24,02,57,11.90
2005,07,24,02,58,11.90
2005,07,24,02,59,11.80
2005,07,24,03,00,11.80
2005,07,24,03,01,11.80
2005,07,24,03,02,11.80
2005,07,24,03,03,11.80
2005,07,24,03,04,11.80
2005,07,24,03,05,11.80
2005,07,24,03,06,11.80
2005,07,24,03,07,11.70
2005,07,24,03,08,11.70
2005,07,24,03,09,11.70
2005,07,24,03,10,11.70
2005,07,24,03,11,11.70
2005,07,24,03,12,11.60
2005,07,24,03,13,11.60
2005,07,24,03,14,11.60
2005,07,24,03,15,11.60
2005,07,24,03,16,11.60
2005,07,24,03,17,11.60
2005,07,24,03,18,11.60
2005,07,24,03,19,11.60
2005,07,24,03,20,11.60
2005,07,24,03,21,11.60
2005,07,24,03,22,11.60
2005,07,24,03,23,11.60
2005,07,24,03,24,11.60
2005,07,24,03,25,11.50
2005,07,24,03,26,11.40
2005,07,24,03,27,11.40
2005,07,24,03,28,11.40
2005,07,24,03,29,11.40
2005,07,24,03,30,11.40
2005,07,24,03,31,11.40
2005,07,24,03,32,11.40
2005,07,24,03,33,11.40
2005,07,24,03,34,11.40
2005,07,24,03,35,11.40
2005,07,24,03,36,11.40
2005,07,24,03,37,11.40
2005,07,24,03,38,11.40
2005,07,24,03,39,11.40
2005,07,24,03,40,11.40
2005,07,24,03,41,11.40
2005,07,24,03,42,11.40
2005,07,24,03,43,11.40
2005,07,24,03,44,11.40
2005,07,24,03,45,11.40
2005,07,24,03,46,11.40
2005,07,24,03,47,11.40
2005,07,24,03,48,11.40
2005,07,24,03,49,11.40
2005,07,24,03,50,11.40
2005,07,24,03,51,11.40
2005,07,24,03,52,11.40
2005,07,24,03,53,11.40
2005,07,24,03,54,11.40
2005,07,24,03,55,11.40
2005,07,24,03,56,11.40
2005,07,24,03,57,11.40
2005,07,24,03,58,11.40
2005,07,24,03,59,11.40
2005,07,24,04,00,11.40
2005,07,24,04,01,11.40
2005,07,24,04,02,11.40
2005,07,24,04,03,11.40
2005,07,24,04,04,11.40
2005,07,24,04,05,11.40
2005,07,24,04,06,11.40
2005,07,24,04,07,11.40
2005,07,24,04,08,11.40
2005,07,24,04,09,11.40
2005,07,24,04,10,11.40
2005,07,24,04,11,11.40
2005,07,24,04,12,11.40
2005,07,24,04,13,11.40
2005,07,24,04,14,11.40
2005,07,24,04,15,11.40
2005,07,24,04,16,11.40
2005,07,24,04,17,11.40
2005,07,24,04,18,11.40
2005,07,24,04,19,11.40
2005,07,24,04,20,11.40
2005,07,24,04,21,11.40
2005,07,24,04,22,11.40
2005,07,24,04,23,11.40
2005,07,24,04,24,11.40
2005,07,24,04,25,11.40
2005,07,24,04,26,11.30
2005,07,24,04,27,11.30
2005,07,24,04,28,11.30
2005,07,24,04,29,11.30
2005,07,24,04,30,11.30
2005,07,24,04,31,11.30
2005,07,24,04,32,11.30
2005,07,24,04,33,11.30
2005,07,24,04,34,11.30
2005,07,24,04,35,11.20
2005,07,24,04,36,11.20
2005,07,24,04,37,11.20
2005,07,24,04,38,11.20
2005,07,24,04,39,11.30
2005,07,24,04,40,11.30
2005,07,24,04,41,11.30
2005,07,24,04,42,11.30
2005,07,24,04,43,11.30
2005,07,24,04,44,11.30
2005,07,24,04,45,11.30
2005,07,24,04,46,11.30
2005,07,24,04,47,11.30
2005,07,24,04,48,11.30
2005,07,24,04,49,11.30
2005,07,24,04,50,11.30
2005,07,24,04,51,11.30
2005,07,24,04,52,11.30
2005,07,24,04,53,11.30
2005,07,24,04,54,11.30
2005,07,24,04,55,11.30
2005,07,24,04,56,11.20
2005,07,24,04,57,11.20
2005,07,24,04,58,11.30
2005,07,24,04,59,11.30
2005,07,24,05,00,11.30
2005,07,24,05,01,11.30
2005,07,24,05,02,11.30
2005,07,24,05,03,11.30
2005,07,24,05,04,11.30
2005,07,24,05,05,11.30
2005,07,24,05,06,11.30
2005,07,24,05,07,11.30
2005,07,24,05,08,11.30
2005,07,24,05,09,11.30
2005,07,24,05,10,11.30
2005,07,24,05,11,11.30
2005,07,24,05,12,11.30
2005,07,24,05,13,11.30
2005,07,24,05,14,11.30
2005,07,24,05,15,11.30
2005,07,24,05,16,11.30
2005,07,24,05,17,11.30
2005,07,24,05,18,11.30
2005,07,24,05,19,11.30
2005,07,24,05,20,11.20
2005,07,24,05,21,11.20
2005,07,24,05,22,11.20
2005,07,24,05,23,11.20
2005,07,24,05,24,11.20
2005,07,24,05,25,11.20
2005,07,24,05,26,11.20
2005,07,24,05,27,11.20
2005,07,24,05,28,11.20
2005,07,24,05,29,11.20
2005,07,24,05,30,11.10
2005,07,24,05,31,11.10
2005,07,24,05,32,11.10
2005,07,24,05,33,11.10
2005,07,24,05,34,11.10
2005,07,24,05,35,11.10
2005,07,24,05,36,11.10
2005,07,24,05,37,11.10
2005,07,24,05,38,11.10
2005,07,24,05,39,11.10
2005,07,24,05,40,11.10
2005,07,24,05,41,11.10
2005,07,24,05,42,11.00
2005,07,24,05,43,10.90
2005,07,24,05,44,10.90
2005,07,24,05,45,10.90
2005,07,24,05,46,10.90
2005,07,24,05,47,10.90
2005,07,24,05,48,10.90
2005,07,24,05,49,10.90
2005,07,24,05,50,10.90
2005,07,24,05,51,10.90
2005,07,24,05,52,10.90
2005,07,24,05,53,10.90
2005,07,24,05,54,10.90
2005,07,24,05,55,10.90
2005,07,24,05,56,10.90
2005,07,24,05,57,10.90
2005,07,24,05,58,10.90
2005,07,24,05,59,10.90
2005,07,24,06,00,10.90
2005,07,24,06,01,10.90
2005,07,24,06,02,10.90
2005,07,24,06,03,10.90
2005,07,24,06,04,10.90
2005,07,24,06,05,10.90
2005,07,24,06,06,10.90
2005,07,24,06,07,10.90
2005,07,24,06,08,11.00
2005,07,24,06,09,11.10
2005,07,24,06,10,11.10
2005,07,24,06,11,11.10
2005,07,24,06,12,11.10
2005,07,24,06,13,11.10
2005,07,24,06,14,11.10
2005,07,24,06,15,11.20
2005,07,24,06,16,11.20
2005,07,24,06,17,11.30
2005,07,24,06,18,11.30
2005,07,24,06,19,11.30
2005,07,24,06,20,11.40
2005,07,24,06,21,11.40
2005,07,24,06,22,11.40
2005,07,24,06,23,11.40
2005,07,24,06,24,11.50
2005,07,24,06,25,11.60
2005,07,24,06,26,11.60
2005,07,24,06,27,11.70
2005,07,24,06,28,11.70
2005,07,24,06,29,11.80
2005,07,24,06,30,11.80
2005,07,24,06,31,11.90
2005,07,24,06,32,11.90
2005,07,24,06,33,12.00
2005,07,24,06,34,12.00
2005,07,24,06,35,12.10
2005,07,24,06,36,12.30
2005,07,24,06,37,12.40
2005,07,24,06,38,12.50
2005,07,24,06,39,12.60
2005,07,24,06,40,12.60
2005,07,24,06,41,12.70
2005,07,24,06,42,12.80
2005,07,24,06,43,12.80
2005,07,24,06,44,12.80
2005,07,24,06,45,12.90
2005,07,24,06,46,13.00
2005,07,24,06,47,13.10
2005,07,24,06,48,13.10
2005,07,24,06,49,13.20
2005,07,24,06,50,13.30
2005,07,24,06,51,13.30
2005,07,24,06,52,13.30
2005,07,24,06,53,13.40
2005,07,24,06,54,13.50
2005,07,24,06,55,13.50
2005,07,24,06,56,13.60
2005,07,24,06,57,13.70
2005,07,24,06,58,13.70
2005,07,24,06,59,13.80
2005,07,24,07,00,13.80
2005,07,24,07,01,13.90
2005,07,24,07,02,13.90
2005,07,24,07,03,14.10
2005,07,24,07,04,14.10
2005,07,24,07,05,14.20
2005,07,24,07,06,14.30
2005,07,24,07,07,14.40
2005,07,24,07,08,14.50
2005,07,24,07,09,14.60
2005,07,24,07,10,14.60
2005,07,24,07,11,14.70
2005,07,24,07,12,14.80
2005,07,24,07,13,14.90
2005,07,24,07,14,15.00
2005,07,24,07,15,15.00
2005,07,24,07,16,15.10
2005,07,24,07,17,15.20
2005,07,24,07,18,15.20
2005,07,24,07,19,15.30
2005,07,24,07,20,15.30
2005,07,24,07,21,15.30
2005,07,24,07,22,15.30
2005,07,24,07,23,15.30
2005,07,24,07,24,15.40
2005,07,24,07,25,15.40
2005,07,24,07,26,15.40
2005,07,24,07,27,15.50
2005,07,24,07,28,15.60
2005,07,24,07,29,15.60
2005,07,24,07,30,15.60
2005,07,24,07,31,15.70
2005,07,24,07,32,15.80
2005,07,24,07,33,15.80
2005,07,24,07,34,15.80
2005,07,24,07,35,15.80
2005,07,24,07,36,15.90
2005,07,24,07,37,15.90
2005,07,24,07,38,15.90
2005,07,24,07,39,15.90
2005,07,24,07,40,15.90
2005,07,24,07,41,15.90
2005,07,24,07,42,16.00
2005,07,24,07,43,16.10
2005,07,24,07,44,16.10
2005,07,24,07,45,16.10
2005,07,24,07,46,16.10
2005,07,24,07,47,16.10
2005,07,24,07,48,16.10
2005,07,24,07,49,16.10
2005,07,24,07,50,16.10
2005,07,24,07,51,16.10
2005,07,24,07,52,16.10
2005,07,24,07,53,16.10
2005,07,24,07,54,16.20
2005,07,24,07,55,16.20
2005,07,24,07,56,16.20
2005,07,24,07,57,16.20
2005,07,24,07,58,16.30
2005,07,24,07,59,16.30
2005,07,24,08,00,16.40
2005,07,24,08,01,16.40
2005,07,24,08,02,16.50
2005,07,24,08,03,16.60
2005,07,24,08,04,16.70
2005,07,24,08,05,16.70
2005,07,24,08,06,16.70
2005,07,24,08,07,16.80
2005,07,24,08,08,16.90
2005,07,24,08,09,16.90
2005,07,24,08,10,17.00
2005,07,24,08,11,17.00
2005,07,24,08,12,17.00
2005,07,24,08,13,17.10
2005,07,24,08,14,17.20
2005,07,24,08,15,17.30
2005,07,24,08,16,17.30
2005,07,24,08,17,17.30
2005,07,24,08,18,17.40
2005,07,24,08,19,17.50
2005,07,24,08,20,17.60
2005,07,24,08,21,17.60
2005,07,24,08,22,17.70
2005,07,24,08,23,17.70
2005,07,24,08,24,17.80
2005,07,24,08,25,17.80
2005,07,24,08,26,17.90
2005,07,24,08,27,17.90
2005,07,24,08,28,17.90
2005,07,24,08,29,18.00
2005,07,24,08,30,18.10
2005,07,24,08,31,18.20
2005,07,24,08,32,18.30
2005,07,24,08,33,18.30
2005,07,24,08,34,18.30
2005,07,24,08,35,18.40
2005,07,24,08,36,18.40
2005,07,24,08,37,18.50
2005,07,24,08,38,18.50
2005,07,24,08,39,18.50
2005,07,24,08,40,18.50
2005,07,24,08,41,18.50
2005,07,24,08,42,18.50
2005,07,24,08,43,18.50
2005,07,24,08,44,18.50
2005,07,24,08,45,18.50
2005,07,24,08,46,18.50
2005,07,24,08,47,18.50
2005,07,24,08,48,18.60
2005,07,24,08,49,18.60
2005,07,24,08,50,18.60
2005,07,24,08,51,18.60
2005,07,24,08,52,18.60
2005,07,24,08,53,18.60
2005,07,24,08,54,18.60
2005,07,24,08,55,18.60
2005,07,24,08,56,18.60
2005,07,24,08,57,18.60
2005,07,24,08,58,18.60
2005,07,24,08,59,18.70
2005,07,24,09,00,18.70
2005,07,24,09,01,18.70
2005,07,24,09,02,18.70
2005,07,24,09,03,18.70
2005,07,24,09,04,18.80
2005,07,24,09,05,18.80
2005,07,24,09,06,18.80
2005,07,24,09,07,18.80
2005,07,24,09,08,18.80
2005,07,24,09,09,18.80
2005,07,24,09,10,18.80
2005,07,24,09,11,18.80
2005,07,24,09,12,18.80
2005,07,24,09,13,18.90
2005,07,24,09,14,18.90
2005,07,24,09,15,18.90
2005,07,24,09,16,18.90
2005,07,24,09,17,19.10
2005,07,24,09,18,19.10
2005,07,24,09,19,19.10
2005,07,24,09,20,19.10
2005,07,24,09,21,19.10
2005,07,24,09,22,19.10
2005,07,24,09,23,19.10
2005,07,24,09,24,19.20
2005,07,24,09,25,19.20
2005,07,24,09,26,19.10
2005,07,24,09,27,19.10
2005,07,24,09,28,19.10
2005,07,24,09,29,19.10
2005,07,24,09,30,19.10
2005,07,24,09,31,19.10
2005,07,24,09,32,19.10
2005,07,24,09,33,19.10
2005,07,24,09,34,19.10
2005,07,24,09,35,19.20
2005,07,24,09,36,19.20
2005,07,24,09,37,19.20
2005,07,24,09,38,19.20
2005,07,24,09,39,19.20
2005,07,24,09,40,19.30
2005,07,24,09,41,19.40
2005,07,24,09,42,19.40
2005,07,24,09,43,19.40
2005,07,24,09,44,19.40
2005,07,24,09,45,19.40
2005,07,24,09,46,19.50
2005,07,24,09,47,19.50
2005,07,24,09,48,19.50
2005,07,24,09,49,19.60
2005,07,24,09,50,19.70
2005,07,24,09,51,19.70
2005,07,24,09,52,19.70
2005,07,24,09,53,19.70
2005,07,24,09,54,19.70
2005,07,24,09,55,19.80
2005,07,24,09,56,19.90
2005,07,24,09,57,20.00
2005,07,24,09,58,20.10
2005,07,24,09,59,20.20
2005,07,24,10,00,20.20
2005,07,24,10,01,20.30
2005,07,24,10,02,20.40
2005,07,24,10,03,20.40
2005,07,24,10,04,20.40
2005,07,24,10,05,20.50
2005,07,24,10,06,20.50
2005,07,24,10,07,20.50
2005,07,24,10,08,20.50
2005,07,24,10,09,20.50
2005,07,24,10,10,20.40
2005,07,24,10,11,20.40
2005,07,24,10,12,20.50
2005,07,24,10,13,20.50
2005,07,24,10,14,20.50
2005,07,24,10,15,20.50
2005,07,24,10,16,20.50
2005,07,24,10,17,20.50
2005,07,24,10,18,20.40
2005,07,24,10,19,20.50
2005,07,24,10,20,20.50
2005,07,24,10,21,20.60
2005,07,24,10,22,20.60
2005,07,24,10,23,20.60
2005,07,24,10,24,20.60
2005,07,24,10,25,20.70
2005,07,24,10,26,20.70
2005,07,24,10,27,20.70
2005,07,24,10,28,20.60
2005,07,24,10,29,20.60
2005,07,24,10,30,20.70
2005,07,24,10,31,20.70
2005,07,24,10,32,20.70
2005,07,24,10,33,20.80
2005,07,24,10,34,20.80
2005,07,24,10,35,20.80
2005,07,24,10,36,20.80
2005,07,24,10,37,20.80
2005,07,24,10,38,20.80
2005,07,24,10,39,20.80
2005,07,24,10,40,20.70
2005,07,24,10,41,20.80
2005,07,24,10,42,20.80
2005,07,24,10,43,20.90
2005,07,24,10,44,20.90
2005,07,24,10,45,21.00
2005,07,24,10,46,21.00
2005,07,24,10,47,21.00
2005,07,24,10,48,21.00
2005,07,24,10,49,21.00
2005,07,24,10,50,21.10
2005,07,24,10,51,21.10
2005,07,24,10,52,21.10
2005,07,24,10,53,21.20
2005,07,24,10,54,21.20
2005,07,24,10,55,21.30
2005,07,24,10,56,21.30
2005,07,24,10,57,21.30
2005,07,24,10,58,21.30
2005,07,24,10,59,21.40
2005,07,24,11,00,21.40
2005,07,24,11,01,21.40
2005,07,24,11,02,21.60
2005,07,24,11,03,21.60
2005,07,24,11,04,21.60
2005,07,24,11,05,21.60
2005,07,24,11,06,21.60
2005,07,24,11,07,21.60
2005,07,24,11,08,21.50
2005,07,24,11,09,21.40
2005,07,24,11,10,21.20
2005,07,24,11,11,21.00
2005,07,24,11,12,21.00
2005,07,24,11,13,20.90
2005,07,24,11,14,20.90
2005,07,24,11,15,20.90
2005,07,24,11,16,20.90
2005,07,24,11,17,21.00
2005,07,24,11,18,21.10
2005,07,24,11,19,21.10
2005,07,24,11,20,21.00
2005,07,24,11,21,21.00
2005,07,24,11,22,21.00
2005,07,24,11,23,21.00
2005,07,24,11,24,20.90
2005,07,24,11,25,20.90
2005,07,24,11,26,20.90
2005,07,24,11,27,20.90
2005,07,24,11,28,21.00
2005,07,24,11,29,21.00
2005,07,24,11,30,20.90
2005,07,24,11,31,20.90
2005,07,24,11,32,20.90
2005,07,24,11,33,20.90
2005,07,24,11,34,20.90
2005,07,24,11,35,20.90
2005,07,24,11,36,21.00
2005,07,24,11,37,21.10
2005,07,24,11,38,21.20
2005,07,24,11,39,21.20
2005,07,24,11,40,21.30
2005,07,24,11,41,21.30
2005,07,24,11,42,21.30
2005,07,24,11,43,21.30
2005,07,24,11,44,21.30
2005,07,24,11,45,21.20
2005,07,24,11,46,21.20
2005,07,24,11,47,21.20
2005,07,24,11,48,21.20
2005,07,24,11,49,21.30
2005,07,24,11,50,21.30
2005,07,24,11,51,21.30
2005,07,24,11,52,21.30
2005,07,24,11,53,21.30
2005,07,24,11,54,21.20
2005,07,24,11,55,21.20
2005,07,24,11,56,21.20
2005,07,24,11,57,21.20
2005,07,24,11,58,21.20
2005,07,24,11,59,21.30
2005,07,24,12,00,21.30
2005,07,24,12,01,21.30
2005,07,24,12,02,21.30
2005,07,24,12,03,21.20
2005,07,24,12,04,21.20
2005,07,24,12,05,21.30
2005,07,24,12,06,21.30
2005,07,24,12,07,21.20
2005,07,24,12,08,21.20
2005,07,24,12,09,21.10
2005,07,24,12,10,21.00
2005,07,24,12,11,21.10
2005,07,24,12,12,21.10
2005,07,24,12,13,21.20
2005,07,24,12,14,21.30
2005,07,24,12,15,21.20
2005,07,24,12,16,21.20
2005,07,24,12,17,21.30
2005,07,24,12,18,21.30
2005,07,24,12,19,21.40
2005,07,24,12,20,21.50
2005,07,24,12,21,21.60
2005,07,24,12,22,21.60
2005,07,24,12,23,21.60
2005,07,24,12,24,21.70
2005,07,24,12,25,21.80
2005,07,24,12,26,21.80
2005,07,24,12,27,21.80
2005,07,24,12,28,21.80
2005,07,24,12,29,21.80
2005,07,24,12,30,21.80
2005,07,24,12,31,21.80
2005,07,24,12,32,21.80
2005,07,24,12,33,21.90
2005,07,24,12,34,22.00
2005,07,24,12,35,22.00
2005,07,24,12,36,21.90
2005,07,24,12,37,21.80
2005,07,24,12,38,21.70
2005,07,24,12,39,21.70
2005,07,24,12,40,21.80
2005,07,24,12,41,21.80
2005,07,24,12,42,21.90
2005,07,24,12,43,22.00
2005,07,24,12,44,22.00
2005,07,24,12,45,22.20
2005,07,24,12,46,22.10
2005,07,24,12,47,22.10
2005,07,24,12,48,22.20
2005,07,24,12,49,22.10
2005,07,24,12,50,22.00
2005,07,24,12,51,22.00
2005,07,24,12,52,21.90
2005,07,24,12,53,21.80
2005,07,24,12,54,21.80
2005,07,24,12,55,21.70
2005,07,24,12,56,21.70
2005,07,24,12,57,21.60
2005,07,24,12,58,21.60
2005,07,24,12,59,21.60
2005,07,24,13,00,21.50
2005,07,24,13,01,21.40
2005,07,24,13,02,21.50
2005,07,24,13,03,21.60
2005,07,24,13,04,21.70
2005,07,24,13,05,21.80
2005,07,24,13,06,21.90
2005,07,24,13,07,22.00
2005,07,24,13,08,22.00
2005,07,24,13,09,22.00
2005,07,24,13,10,21.80
2005,07,24,13,11,21.60
2005,07,24,13,12,21.70
2005,07,24,13,13,21.60
2005,07,24,13,14,21.50
2005,07,24,13,15,21.40
2005,07,24,13,16,21.60
2005,07,24,13,17,21.60
2005,07,24,13,18,21.70
2005,07,24,13,19,21.80
2005,07,24,13,20,21.80
2005,07,24,13,21,21.90
2005,07,24,13,22,21.90
2005,07,24,13,23,21.90
2005,07,24,13,24,21.90
2005,07,24,13,25,21.80
2005,07,24,13,26,21.90
2005,07,24,13,27,21.90
2005,07,24,13,28,21.90
2005,07,24,13,29,21.80
2005,07,24,13,30,21.90
2005,07,24,13,31,22.00
2005,07,24,13,32,21.90
2005,07,24,13,33,21.90
2005,07,24,13,34,21.90
2005,07,24,13,35,22.00
2005,07,24,13,36,22.10
2005,07,24,13,37,22.00
2005,07,24,13,38,21.90
2005,07,24,13,39,21.90
2005,07,24,13,40,21.90
2005,07,24,13,41,21.80
2005,07,24,13,42,21.80
2005,07,24,13,43,21.90
2005,07,24,13,44,21.90
2005,07,24,13,45,22.00
2005,07,24,13,46,22.10
2005,07,24,13,47,22.20
2005,07,24,13,48,22.40
2005,07,24,13,49,22.60
2005,07,24,13,50,22.70
2005,07,24,13,51,22.60
2005,07,24,13,52,22.60
2005,07,24,13,53,22.60
2005,07,24,13,54,22.70
2005,07,24,13,55,22.60
2005,07,24,13,56,22.60
2005,07,24,13,57,22.60
2005,07,24,13,58,22.40
2005,07,24,13,59,22.40
2005,07,24,14,00,22.40
2005,07,24,14,01,22.30
2005,07,24,14,02,22.30
2005,07,24,14,03,22.20
2005,07,24,14,04,22.20
2005,07,24,14,05,22.20
2005,07,24,14,06,22.20
2005,07,24,14,07,22.10
2005,07,24,14,08,22.00
2005,07,24,14,09,21.80
2005,07,24,14,10,21.60
2005,07,24,14,11,21.60
2005,07,24,14,12,21.60
2005,07,24,14,13,21.60
2005,07,24,14,14,21.80
2005,07,24,14,15,21.90
2005,07,24,14,16,21.90
2005,07,24,14,17,21.90
2005,07,24,14,18,22.00
2005,07,24,14,19,22.00
2005,07,24,14,20,22.00
2005,07,24,14,21,22.00
2005,07,24,14,22,22.10
2005,07,24,14,23,22.20
2005,07,24,14,24,22.40
2005,07,24,14,25,22.50
2005,07,24,14,26,22.70
2005,07,24,14,27,22.80
2005,07,24,14,28,22.80
2005,07,24,14,29,22.70
2005,07,24,14,30,22.80
2005,07,24,14,31,22.90
2005,07,24,14,32,23.00
2005,07,24,14,33,23.10
2005,07,24,14,34,23.30
2005,07,24,14,35,23.30
2005,07,24,14,36,23.40
2005,07,24,14,37,23.40
2005,07,24,14,38,23.30
2005,07,24,14,39,23.30
2005,07,24,14,40,23.10
2005,07,24,14,41,23.00
2005,07,24,14,42,22.90
2005,07,24,14,43,22.90
2005,07,24,14,44,22.90
2005,07,24,14,45,22.90
2005,07,24,14,46,22.90
2005,07,24,14,47,22.90
2005,07,24,14,48,22.80
2005,07,24,14,49,22.70
2005,07,24,14,50,22.60
2005,07,24,14,51,22.50
2005,07,24,14,52,22.50
2005,07,24,14,53,22.50
2005,07,24,14,54,22.40
2005,07,24,14,55,22.50
2005,07,24,14,56,22.60
2005,07,24,14,57,22.70
2005,07,24,14,58,22.80
2005,07,24,14,59,23.00
2005,07,24,15,00,23.10
2005,07,24,15,01,23.10
2005,07,24,15,02,23.10
2005,07,24,15,03,23.00
2005,07,24,15,04,22.90
2005,07,24,15,05,23.00
2005,07,24,15,06,23.10
2005,07,24,15,07,23.10
2005,07,24,15,08,23.20
2005,07,24,15,09,23.10
2005,07,24,15,10,23.00
2005,07,24,15,11,22.80
2005,07,24,15,12,22.70
2005,07,24,15,13,22.80
2005,07,24,15,14,22.90
2005,07,24,15,15,23.10
2005,07,24,15,16,23.30
2005,07,24,15,17,23.40
2005,07,24,15,18,23.50
2005,07,24,15,19,23.50
2005,07,24,15,20,23.30
2005,07,24,15,21,23.30
2005,07,24,15,22,23.30
2005,07,24,15,23,23.20
2005,07,24,15,24,23.00
2005,07,24,15,25,22.90
2005,07,24,15,26,23.00
2005,07,24,15,27,23.10
2005,07,24,15,28,23.20
2005,07,24,15,29,23.20
2005,07,24,15,30,23.20
2005,07,24,15,31,23.30
2005,07,24,15,32,23.30
2005,07,24,15,33,23.20
2005,07,24,15,34,23.20
2005,07,24,15,35,23.00
2005,07,24,15,36,22.90
2005,07,24,15,37,22.90
2005,07,24,15,38,22.90
2005,07,24,15,39,22.90
2005,07,24,15,40,22.90
2005,07,24,15,41,22.90
2005,07,24,15,42,22.90
2005,07,24,15,43,22.90
2005,07,24,15,44,22.90
2005,07,24,15,45,23.00
2005,07,24,15,46,23.10
2005,07,24,15,47,22.90
2005,07,24,15,48,22.80
2005,07,24,15,49,22.70
2005,07,24,15,50,22.70
2005,07,24,15,51,22.70
2005,07,24,15,52,22.80
2005,07,24,15,53,22.90
2005,07,24,15,54,23.00
2005,07,24,15,55,23.10
2005,07,24,15,56,23.10
2005,07,24,15,57,23.10
2005,07,24,15,58,23.20
2005,07,24,15,59,23.30
2005,07,24,16,00,23.30
2005,07,24,16,01,23.30
2005,07,24,16,02,23.40
2005,07,24,16,03,23.50
2005,07,24,16,04,23.70
2005,07,24,16,05,23.70
2005,07,24,16,06,23.70
2005,07,24,16,07,23.80
2005,07,24,16,08,23.70
2005,07,24,16,09,23.80
2005,07,24,16,10,23.70
2005,07,24,16,11,23.70
2005,07,24,16,12,23.70
2005,07,24,16,13,23.70
2005,07,24,16,14,23.70
2005,07,24,16,15,23.70
2005,07,24,16,16,23.60
2005,07,24,16,17,23.50
2005,07,24,16,18,23.40
2005,07,24,16,19,23.30
2005,07,24,16,20,23.30
2005,07,24,16,21,23.30
2005,07,24,16,22,23.20
2005,07,24,16,23,23.20
2005,07,24,16,24,23.30
2005,07,24,16,25,23.30
2005,07,24,16,26,23.30
2005,07,24,16,27,23.30
2005,07,24,16,28,23.40
2005,07,24,16,29,23.40
2005,07,24,16,30,23.50
2005,07,24,16,31,23.60
2005,07,24,16,32,23.70
2005,07,24,16,33,23.70
2005,07,24,16,34,23.70
2005,07,24,16,35,23.70
2005,07,24,16,36,23.70
2005,07,24,16,37,23.70
2005,07,24,16,38,23.70
2005,07,24,16,39,23.70
2005,07,24,16,40,23.70
2005,07,24,16,41,23.70
2005,07,24,16,42,23.50
2005,07,24,16,43,23.30
2005,07,24,16,44,23.40
2005,07,24,16,45,23.60
2005,07,24,16,46,23.70
2005,07,24,16,47,23.70
2005,07,24,16,48,23.70
2005,07,24,16,49,23.80
2005,07,24,16,50,23.80
2005,07,24,16,51,23.80
2005,07,24,16,52,23.90
2005,07,24,16,53,23.90
2005,07,24,16,54,23.90
2005,07,24,16,55,23.80
2005,07,24,16,56,23.70
2005,07,24,16,57,23.70
2005,07,24,16,58,23.70
2005,07,24,16,59,23.70
2005,07,24,17,00,23.70
2005,07,24,17,01,23.70
2005,07,24,17,02,23.70
2005,07,24,17,03,23.70
2005,07,24,17,04,23.80
2005,07,24,17,05,23.90
2005,07,24,17,06,23.90
2005,07,24,17,07,23.90
2005,07,24,17,08,23.90
2005,07,24,17,09,23.90
2005,07,24,17,10,24.00
2005,07,24,17,11,24.10
2005,07,24,17,12,24.10
2005,07,24,17,13,24.10
2005,07,24,17,14,24.10
2005,07,24,17,15,24.10
2005,07,24,17,16,24.10
2005,07,24,17,17,24.20
2005,07,24,17,18,24.20
2005,07,24,17,19,24.30